Doylestown, PA

9:39 PM EDT on March 22, 2017 (GMT -0400)
Doylestown

Weather History for KDYL - October, 2013

Change the Weather History Date:

Friday, October 11, 2013

  Actual Average (KTTN) Record (KTTN)
Temperature  
Mean Temperature 58 °F -  
Max Temperature 62 °F 64 °F 85 °F (1949)
Min Temperature 55 °F 44 °F 31 °F (1993)
Degree Days  
Heating Degree Days 6    
Growing Degree Days 8 (Base 50)    
Moisture  
Dew Point 59 °F    
Average Humidity 96    
Maximum Humidity 100    
Minimum Humidity 87    
Precipitation  
Precipitation 1.03 in - - ()
Sea Level Pressure  
Sea Level Pressure 30.02 in    
Wind  
Wind Speed 9 mph (NE)    
Max Wind Speed 12 mph    
Max Gust Speed 21 mph    
Visibility 8 miles    
Events Rain    
Averages and records for this station are not official NWS values.
T = Trace of Precipitation, MM = Missing Value Source: NWS Daily Summary

Daily Weather History Graph

Daily Weather History Graph

Search for Another Location

Airport or City:

Trip Planner

Search our weather history database for the weather conditions in past years. The results will help you decide how hot, cold, wet, or windy it might be!

Date:

Astronomy

Oct. 11, 2013 Rise Set
Actual Time 7:07 AM EDT 6:26 PM EDT
Civil Twilight 6:39 AM EDT 6:53 PM EDT
Nautical Twilight 6:08 AM EDT 7:25 PM EDT
Astronomical Twilight 5:36 AM EDT 7:56 PM EDT
Moon 1:47 PM EDT (10/11) No Moon Set
Length of Visible Light 12h 13m
Length of Day
11h 19m
Waxing Crescent, 47% of the Moon is Illuminated
Oct 11
Waxing Crescent
Oct 11
First Quarter
Oct 18
Full
Oct 26
Last Quarter
Nov 3
New

Hourly Weather History & Observations

Time (EDT) Temp. Dew Point Humidity Pressure Visibility Wind Dir Wind Speed Gust Speed Precip Events Conditions
12:54 AM 57.9 °F 54.0 °F 87% 30.02 in 10.0 mi NE 10.4 mph 19.6 mph 0.00 in   Overcast
1:54 AM 57.9 °F 55.0 °F 90% 30.01 in 10.0 mi NE 11.5 mph 18.4 mph N/A   Overcast
2:37 AM 57.2 °F 55.4 °F 94% 29.99 in 10.0 mi NE 11.5 mph 20.7 mph N/A   Overcast
2:54 AM 57.0 °F 55.0 °F 93% 30.00 in 10.0 mi Variable 6.9 mph 19.6 mph N/A   Overcast
3:54 AM 57.0 °F 55.0 °F 93% 29.99 in 10.0 mi NNE 9.2 mph - N/A   Overcast
4:09 AM 57.2 °F 53.6 °F 88% 29.99 in 10.0 mi NNE 8.1 mph 16.1 mph 0.00 in Rain Light Rain
4:54 AM 55.9 °F 55.0 °F 97% 30.00 in 10.0 mi NE 9.2 mph - 0.04 in Rain Rain
5:54 AM 55.9 °F 55.9 °F 100% 30.00 in 10.0 mi NE 9.2 mph - 0.16 in Rain Light Rain
6:24 AM 55.4 °F 55.4 °F 100% 30.00 in 10.0 mi NNE 9.2 mph - 0.00 in   Overcast
6:54 AM 57.0 °F 55.9 °F 96% 30.01 in 10.0 mi NNE 11.5 mph - 0.00 in   Overcast
7:54 AM 57.0 °F 55.9 °F 96% 30.02 in 10.0 mi NE 9.2 mph 17.3 mph 0.00 in Rain Light Rain
8:54 AM 57.0 °F 57.0 °F 100% 30.02 in 5.0 mi NNE 10.4 mph - 0.14 in Rain Rain
9:54 AM 57.9 °F 57.9 °F 100% 30.02 in 10.0 mi NNE 8.1 mph - 0.06 in   Overcast
10:54 AM 60.1 °F 60.1 °F 100% 30.03 in 10.0 mi Variable 6.9 mph - 0.03 in Rain Light Rain
11:43 AM 60.8 °F 60.8 °F 100% 30.02 in 10.0 mi North 8.1 mph - 0.00 in   Overcast
11:54 AM 61.0 °F 60.1 °F 97% 30.02 in 10.0 mi NNE 8.1 mph - 0.00 in   Overcast
12:24 PM 60.8 °F 60.8 °F 100% 30.02 in 2.0 mi NNE 8.1 mph - 0.04 in Rain Rain
12:31 PM 60.8 °F 60.8 °F 100% 30.02 in 3.0 mi NNE 8.1 mph - 0.05 in Rain Light Rain
12:42 PM 60.8 °F 60.8 °F 100% 30.02 in 4.0 mi NE 6.9 mph - 0.06 in Rain Light Rain
12:52 PM 60.8 °F 60.8 °F 100% 30.01 in 8.0 mi NE 8.1 mph - 0.06 in Rain Light Rain
12:54 PM 60.1 °F 60.1 °F 100% 30.01 in 9.0 mi NNE 5.8 mph - 0.06 in Rain Light Rain
1:23 PM 60.8 °F 60.8 °F 100% 30.01 in 10.0 mi NE 6.9 mph - 0.01 in Rain Light Rain
1:52 PM 59.0 °F 59.0 °F 100% 30.00 in 2.0 mi NE 10.4 mph 18.4 mph 0.09 in Rain Heavy Rain
1:54 PM 59.0 °F 59.0 °F 100% 30.00 in 2.5 mi NE 9.2 mph 18.4 mph 0.10 in Rain Heavy Rain
2:03 PM 59.0 °F 59.0 °F 100% 30.00 in 3.0 mi NNE 8.1 mph 18.4 mph 0.05 in Rain Rain
2:22 PM 59.0 °F 59.0 °F 100% 29.99 in 6.0 mi NE 11.5 mph 18.4 mph 0.16 in Rain Rain
2:34 PM 59.0 °F 59.0 °F 100% 29.99 in 6.0 mi NE 9.2 mph 18.4 mph 0.23 in Rain Rain
2:54 PM 59.0 °F 59.0 °F 100% 30.00 in 4.0 mi NE 9.2 mph 17.3 mph 0.31 in Rain Rain
2:58 PM 59.0 °F 59.0 °F 100% 30.00 in 2.5 mi NE 6.9 mph 17.3 mph 0.02 in Rain Heavy Rain
3:02 PM 59.0 °F 59.0 °F 100% 30.00 in 3.0 mi NE 11.5 mph 17.3 mph 0.04 in Rain Rain
3:10 PM 60.8 °F 60.8 °F 100% 30.00 in 8.0 mi NE 10.4 mph 18.4 mph 0.08 in Rain Light Rain
3:54 PM 61.0 °F 61.0 °F 100% 30.00 in 8.0 mi NNE 6.9 mph - 0.13 in Rain Light Rain
4:54 PM 62.1 °F 61.0 °F 96% 30.01 in 10.0 mi NNE 8.1 mph - 0.00 in   Overcast
5:54 PM 62.1 °F 61.0 °F 96% 30.02 in 10.0 mi NE 6.9 mph - N/A   Overcast
6:21 PM 62.6 °F 60.8 °F 94% 30.02 in 10.0 mi NNE 6.9 mph - 0.00 in   Overcast
6:54 PM 62.1 °F 60.1 °F 93% 30.03 in 10.0 mi NE 4.6 mph - 0.00 in   Overcast
7:54 PM 62.1 °F 60.1 °F 93% 30.04 in 10.0 mi NNE 6.9 mph - N/A   Overcast
8:21 PM 62.6 °F 60.8 °F 94% 30.05 in 10.0 mi NE 4.6 mph - 0.00 in Rain Light Rain
8:54 PM 62.1 °F 60.1 °F 93% 30.05 in 10.0 mi NE 6.9 mph - 0.00 in   Overcast
9:54 PM 62.1 °F 59.0 °F 90% 30.07 in 10.0 mi NNE 5.8 mph - N/A   Mostly Cloudy
10:17 PM 62.6 °F 59.0 °F 88% 30.07 in 10.0 mi NNE 5.8 mph - N/A   Overcast
10:54 PM 62.1 °F 59.0 °F 90% 30.06 in 10.0 mi Variable 4.6 mph - N/A   Mostly Cloudy
11:02 PM 62.6 °F 59.0 °F 88% 30.06 in 10.0 mi NNE 8.1 mph - N/A   Scattered Clouds
11:54 PM 61.0 °F 59.0 °F 93% 30.05 in 10.0 mi Calm Calm - N/A   Scattered Clouds